Time,TemperatureF,DewpointF,PressureIn,WindDirection,WindDirectionDegrees,WindSpeedMPH,WindSpeedGustMPH,Humidity,HourlyPrecipIn,Conditions,Clouds,dailyrainin,SoftwareType,DateUTC
2013-01-28 00:17:00,18.5,10.0,30.51,NNW,340,0.0,-999.0,70,-99.99,,,0.00,weatherlink.com 1.10,2013-01-28 05:17:00,
2013-01-28 00:32:00,18.2,10.0,30.52,NNW,340,0.0,-999.0,70,-99.99,,,0.00,weatherlink.com 1.10,2013-01-28 05:32:00,
2013-01-28 00:47:00,18.4,10.0,30.52,NNW,340,0.0,-999.0,70,-99.99,,,0.00,weatherlink.com 1.10,2013-01-28 05:47:00,
2013-01-28 01:02:00,18.2,11.0,30.51,NNW,340,0.0,-999.0,73,-99.99,,,0.00,weatherlink.com 1.10,2013-01-28 06:02:00,
2013-01-28 01:17:00,18.2,11.0,30.50,NNW,340,0.0,-999.0,74,-99.99,,,0.00,weatherlink.com 1.10,2013-01-28 06:17:00,
2013-01-28 01:32:00,18.2,11.0,30.50,NNW,340,0.0,-999.0,72,-99.99,,,0.00,weatherlink.com 1.10,2013-01-28 06:32:00,
2013-01-28 01:47:00,18.1,11.0,30.50,NNW,340,0.0,-999.0,74,-99.99,,,0.00,weatherlink.com 1.10,2013-01-28 06:47:00,
2013-01-28 02:02:00,18.2,11.0,30.50,NNW,340,0.0,-999.0,74,-99.99,,,0.00,weatherlink.com 1.10,2013-01-28 07:02:00,
2013-01-28 02:17:00,18.4,11.0,30.50,NNW,340,0.0,-999.0,74,-99.99,,,0.00,weatherlink.com 1.10,2013-01-28 07:17:00,
2013-01-28 02:32:00,18.6,12.0,30.49,NNW,340,0.0,-999.0,75,-99.99,,,0.00,weatherlink.com 1.10,2013-01-28 07:32:00,
2013-01-28 02:47:00,18.7,12.0,30.48,NNW,340,0.0,-999.0,75,-99.99,,,0.00,weatherlink.com 1.10,2013-01-28 07:47:00,
2013-01-28 03:02:00,18.7,12.0,30.47,NNW,340,0.0,-999.0,74,-99.99,,,0.00,weatherlink.com 1.10,2013-01-28 08:02:00,
2013-01-28 03:17:00,18.6,12.0,30.47,NNW,340,0.0,-999.0,74,-99.99,,,0.00,weatherlink.com 1.10,2013-01-28 08:17:00,
2013-01-28 03:32:00,18.7,12.0,30.46,NNW,340,0.0,-999.0,75,-99.99,,,0.00,weatherlink.com 1.10,2013-01-28 08:32:00,
2013-01-28 03:47:00,18.8,12.0,30.46,NNW,340,0.0,-999.0,75,-99.99,,,0.00,weatherlink.com 1.10,2013-01-28 08:47:00,
2013-01-28 04:02:00,19.0,12.0,30.46,NNW,340,0.0,-999.0,74,-99.99,,,0.00,weatherlink.com 1.10,2013-01-28 09:02:00,
2013-01-28 04:17:00,19.4,12.0,30.46,NNW,340,0.0,-999.0,73,-99.99,,,0.00,weatherlink.com 1.10,2013-01-28 09:17:00,
2013-01-28 04:32:00,19.8,12.0,30.46,NNW,340,0.0,-999.0,72,-99.99,,,0.00,weatherlink.com 1.10,2013-01-28 09:32:00,
2013-01-28 04:47:00,20.2,12.0,30.45,NNW,340,0.0,-999.0,70,-99.99,,,0.00,weatherlink.com 1.10,2013-01-28 09:47:00,
2013-01-28 05:02:00,20.5,12.0,30.45,NNW,340,0.0,-999.0,71,-99.99,,,0.00,weatherlink.com 1.10,2013-01-28 10:02:00,
2013-01-28 05:17:00,20.7,12.0,30.45,NNW,340,0.0,-999.0,68,-99.99,,,0.00,weatherlink.com 1.10,2013-01-28 10:17:00,
2013-01-28 05:32:00,20.8,12.0,30.45,NNW,340,0.0,-999.0,68,-99.99,,,0.00,weatherlink.com 1.10,2013-01-28 10:32:00,
2013-01-28 05:47:00,20.9,13.0,30.44,NNW,340,0.0,-999.0,70,-99.99,,,0.00,weatherlink.com 1.10,2013-01-28 10:47:00,
2013-01-28 06:02:00,21.0,12.0,30.43,NNW,340,0.0,-999.0,69,-99.99,,,0.00,weatherlink.com 1.10,2013-01-28 11:02:00,
2013-01-28 06:17:00,21.1,13.0,30.45,NNW,340,0.0,-999.0,70,-99.99,,,0.00,weatherlink.com 1.10,2013-01-28 11:17:00,
2013-01-28 06:32:00,21.3,13.0,30.44,NNW,340,0.0,-999.0,69,-99.99,,,0.00,weatherlink.com 1.10,2013-01-28 11:32:00,
2013-01-28 06:47:00,21.6,13.0,30.44,NNW,340,0.0,-999.0,70,-99.99,,,0.00,weatherlink.com 1.10,2013-01-28 11:47:00,
2013-01-28 07:02:00,21.8,14.0,30.43,NNW,340,0.0,-999.0,71,-99.99,,,0.00,weatherlink.com 1.10,2013-01-28 12:02:00,
2013-01-28 07:17:00,22.0,14.0,30.44,NNW,341,0.0,-999.0,70,-99.99,,,0.00,weatherlink.com 1.10,2013-01-28 12:17:00,
2013-01-28 07:32:00,22.2,14.0,30.43,NNW,340,0.0,-999.0,70,-99.99,,,0.00,weatherlink.com 1.10,2013-01-28 12:32:00,
2013-01-28 07:47:00,22.5,14.0,30.43,NNW,340,0.0,-999.0,69,-99.99,,,0.00,weatherlink.com 1.10,2013-01-28 12:47:00,
2013-01-28 08:02:00,22.8,14.0,30.42,NNW,340,0.0,-999.0,69,-99.99,,,0.00,weatherlink.com 1.10,2013-01-28 13:02:00,
2013-01-28 08:18:00,23.2,14.0,30.42,West,261,0.0,-999.0,69,-99.99,,,0.00,weatherlink.com 1.10,2013-01-28 13:18:00,
2013-01-28 08:33:00,23.5,15.0,30.42,West,261,0.0,-999.0,70,-99.99,,,0.00,weatherlink.com 1.10,2013-01-28 13:33:00,
2013-01-28 08:48:00,23.9,15.0,30.42,West,260,0.0,-999.0,70,-99.99,,,0.00,weatherlink.com 1.10,2013-01-28 13:48:00,
2013-01-28 09:03:00,24.3,16.0,30.42,West,260,0.0,-999.0,72,-99.99,,,0.00,weatherlink.com 1.10,2013-01-28 14:03:00,
2013-01-28 09:18:00,24.5,18.0,30.41,West,260,0.0,-999.0,75,-99.99,,,0.00,weatherlink.com 1.10,2013-01-28 14:18:00,
2013-01-28 09:33:00,24.2,19.0,30.41,West,260,0.0,-999.0,80,-99.99,,,0.00,weatherlink.com 1.10,2013-01-28 14:33:00,
2013-01-28 09:48:00,24.0,20.0,30.40,WSW,257,2.0,-999.0,83,-99.99,,,0.00,weatherlink.com 1.10,2013-01-28 14:48:00,
2013-01-28 10:03:00,23.9,20.0,30.40,WSW,244,2.0,-999.0,84,-99.99,,,0.00,weatherlink.com 1.10,2013-01-28 15:03:00,
2013-01-28 10:18:00,24.1,20.0,30.40,SW,220,1.0,-999.0,85,-99.99,,,0.00,weatherlink.com 1.10,2013-01-28 15:18:00,
2013-01-28 10:33:00,24.4,22.0,30.38,ESE,123,1.0,-999.0,92,-99.99,,,0.00,weatherlink.com 1.10,2013-01-28 15:33:00,
2013-01-28 10:48:00,24.4,21.0,30.37,ESE,113,1.0,-999.0,86,-99.99,,,0.00,weatherlink.com 1.10,2013-01-28 15:48:00,
2013-01-28 11:03:00,24.6,21.0,30.36,ESE,113,0.0,-999.0,87,-99.99,,,0.00,weatherlink.com 1.10,2013-01-28 16:03:00,
2013-01-28 11:18:00,25.3,22.0,30.34,SSW,200,1.0,-999.0,88,-99.99,,,0.00,weatherlink.com 1.10,2013-01-28 16:18:00,
2013-01-28 11:33:00,26.0,23.0,30.33,SSW,200,0.0,-999.0,89,-99.99,,,0.00,weatherlink.com 1.10,2013-01-28 16:33:00,
2013-01-28 11:48:00,26.3,23.0,30.32,SW,227,2.0,-999.0,88,-99.99,,,0.00,weatherlink.com 1.10,2013-01-28 16:48:00,
2013-01-28 12:03:00,26.2,23.0,30.31,SSE,154,0.0,-999.0,88,-99.99,,,0.00,weatherlink.com 1.10,2013-01-28 17:03:00,
2013-01-28 12:18:00,26.3,23.0,30.28,ESE,119,0.0,-999.0,88,-99.99,,,0.00,weatherlink.com 1.10,2013-01-28 17:18:00,
2013-01-28 12:34:00,26.6,24.0,30.26,ESE,103,2.0,-999.0,89,-99.99,,,0.00,weatherlink.com 1.10,2013-01-28 17:34:00,
2013-01-28 12:48:00,26.6,24.0,30.25,ESE,103,0.0,-999.0,89,-99.99,,,0.00,weatherlink.com 1.10,2013-01-28 17:48:00,
2013-01-28 13:03:00,26.7,24.0,30.23,ESE,103,0.0,-999.0,90,-99.99,,,0.00,weatherlink.com 1.10,2013-01-28 18:03:00,
2013-01-28 13:18:00,27.0,25.0,30.23,ESE,103,0.0,-999.0,90,-99.99,,,0.00,weatherlink.com 1.10,2013-01-28 18:18:00,
2013-01-28 13:34:00,27.5,25.0,30.21,ESE,103,0.0,-999.0,91,-99.99,,,0.00,weatherlink.com 1.10,2013-01-28 18:34:00,
2013-01-28 13:48:00,27.8,25.0,30.18,ESE,103,1.0,-999.0,90,-99.99,,,0.00,weatherlink.com 1.10,2013-01-28 18:48:00,
2013-01-28 14:04:00,28.1,26.0,30.17,ESE,103,1.0,-999.0,91,-99.99,,,0.00,weatherlink.com 1.10,2013-01-28 19:04:00,
2013-01-28 14:18:00,29.0,27.0,30.15,ESE,104,2.0,-999.0,93,-99.99,,,0.00,weatherlink.com 1.10,2013-01-28 19:18:00,
2013-01-28 14:33:00,30.1,28.0,30.14,ESE,111,2.0,-999.0,93,-99.99,,,0.00,weatherlink.com 1.10,2013-01-28 19:33:00,
2013-01-28 14:49:00,30.6,29.0,30.15,SE,132,1.0,-999.0,93,-99.99,,,0.00,weatherlink.com 1.10,2013-01-28 19:49:00,
2013-01-28 15:04:00,31.1,29.0,30.14,SE,132,0.0,-999.0,93,-99.99,,,0.00,weatherlink.com 1.10,2013-01-28 20:04:00,
2013-01-28 15:19:00,31.6,30.0,30.14,WNW,285,2.0,-999.0,93,-99.99,,,0.00,weatherlink.com 1.10,2013-01-28 20:19:00,
2013-01-28 15:34:00,32.1,30.0,30.11,ENE,67,2.0,-999.0,93,-99.99,,,0.00,weatherlink.com 1.10,2013-01-28 20:34:00,
2013-01-28 15:49:00,32.5,31.0,30.13,West,281,1.0,-999.0,92,-99.99,,,0.00,weatherlink.com 1.10,2013-01-28 20:49:00,
2013-01-28 16:04:00,32.6,31.0,30.12,SSE,151,2.0,-999.0,92,-99.99,,,0.00,weatherlink.com 1.10,2013-01-28 21:04:00,
2013-01-28 16:19:00,32.7,31.0,30.11,SE,132,1.0,-999.0,92,-99.99,,,0.00,weatherlink.com 1.10,2013-01-28 21:19:00,
2013-01-28 16:34:00,32.6,31.0,30.11,SE,132,0.0,-999.0,93,-99.99,,,0.00,weatherlink.com 1.10,2013-01-28 21:34:00,
2013-01-28 16:49:00,32.5,31.0,30.10,East,91,0.0,-999.0,93,-99.99,,,0.00,weatherlink.com 1.10,2013-01-28 21:49:00,
2013-01-28 17:04:00,32.4,31.0,30.10,East,79,0.0,-999.0,93,-99.99,,,0.00,weatherlink.com 1.10,2013-01-28 22:04:00,
2013-01-28 17:19:00,32.4,31.0,30.10,WSW,239,0.0,-999.0,93,-99.99,,,0.00,weatherlink.com 1.10,2013-01-28 22:19:00,
2013-01-28 17:34:00,32.4,31.0,30.09,SE,128,1.0,-999.0,93,-99.99,,,0.00,weatherlink.com 1.10,2013-01-28 22:34:00,
2013-01-28 17:49:00,32.4,31.0,30.09,ENE,74,1.0,-999.0,93,-99.99,,,0.00,weatherlink.com 1.10,2013-01-28 22:49:00,
2013-01-28 18:04:00,32.4,31.0,30.08,ENE,74,0.0,-999.0,93,-99.99,,,0.00,weatherlink.com 1.10,2013-01-28 23:04:00,
2013-01-28 18:19:00,32.4,31.0,30.08,ENE,74,0.0,-999.0,93,-99.99,,,0.00,weatherlink.com 1.10,2013-01-28 23:19:00,
2013-01-28 18:34:00,32.4,31.0,30.07,ENE,74,0.0,-999.0,94,-99.99,,,0.00,weatherlink.com 1.10,2013-01-28 23:34:00,
2013-01-28 18:49:00,32.4,31.0,30.07,ESE,114,2.0,-999.0,94,-99.99,,,0.00,weatherlink.com 1.10,2013-01-28 23:49:00,
2013-01-28 19:04:00,32.4,31.0,30.06,SE,126,0.0,-999.0,94,-99.99,,,0.00,weatherlink.com 1.10,2013-01-29 00:04:00,
2013-01-28 19:19:00,32.5,31.0,30.07,SE,126,1.0,-999.0,94,-99.99,,,0.00,weatherlink.com 1.10,2013-01-29 00:19:00,
2013-01-28 19:34:00,32.5,31.0,30.07,West,263,0.0,-999.0,94,-99.99,,,0.00,weatherlink.com 1.10,2013-01-29 00:34:00,
2013-01-28 19:49:00,32.5,31.0,30.07,SW,223,0.0,-999.0,94,-99.99,,,0.00,weatherlink.com 1.10,2013-01-29 00:49:00,
2013-01-28 20:04:00,32.5,31.0,30.05,SSE,148,1.0,-999.0,94,-99.99,,,0.00,weatherlink.com 1.10,2013-01-29 01:04:00,
2013-01-28 20:19:00,32.4,31.0,30.05,SE,126,0.0,-999.0,94,-99.99,,,0.00,weatherlink.com 1.10,2013-01-29 01:19:00,
2013-01-28 20:34:00,32.6,31.0,30.05,East,84,2.0,-999.0,94,-99.99,,,0.00,weatherlink.com 1.10,2013-01-29 01:34:00,
2013-01-28 20:49:00,32.6,31.0,30.04,ESE,115,0.0,-999.0,94,-99.99,,,0.00,weatherlink.com 1.10,2013-01-29 01:49:00,
2013-01-28 21:04:00,32.6,31.0,30.03,SE,128,2.0,-999.0,94,-99.99,,,0.00,weatherlink.com 1.10,2013-01-29 02:04:00,
2013-01-28 21:19:00,32.6,31.0,30.03,SE,128,0.0,-999.0,94,-99.99,,,0.00,weatherlink.com 1.10,2013-01-29 02:19:00,
2013-01-28 21:34:00,32.5,31.0,30.03,ESE,116,0.0,-999.0,94,-99.99,,,0.00,weatherlink.com 1.10,2013-01-29 02:34:00,
2013-01-28 21:49:00,32.5,31.0,30.02,ESE,115,0.0,-999.0,94,-99.99,,,0.00,weatherlink.com 1.10,2013-01-29 02:49:00,
2013-01-28 22:04:00,32.6,31.0,30.02,ESE,114,2.0,-999.0,95,-99.99,,,0.00,weatherlink.com 1.10,2013-01-29 03:04:00,
2013-01-28 22:19:00,32.6,31.0,30.02,ESE,114,0.0,-999.0,95,-99.99,,,0.00,weatherlink.com 1.10,2013-01-29 03:19:00,
2013-01-28 22:34:00,32.6,31.0,30.02,ESE,114,0.0,-999.0,95,-99.99,,,0.00,weatherlink.com 1.10,2013-01-29 03:34:00,
2013-01-28 22:49:00,32.8,32.0,30.02,ESE,110,1.0,-999.0,95,-99.99,,,0.00,weatherlink.com 1.10,2013-01-29 03:49:00,
2013-01-28 23:04:00,32.9,31.0,30.01,ESE,111,1.0,-999.0,94,-99.99,,,0.00,weatherlink.com 1.10,2013-01-29 04:04:00,
2013-01-28 23:19:00,33.0,32.0,30.01,ESE,111,0.0,-999.0,94,-99.99,,,0.00,weatherlink.com 1.10,2013-01-29 04:19:00,
2013-01-28 23:34:00,33.2,32.0,30.01,ESE,104,0.0,-999.0,95,-99.99,,,0.00,weatherlink.com 1.10,2013-01-29 04:34:00,
2013-01-28 23:49:00,33.3,32.0,30.01,ESE,104,1.0,-999.0,94,-99.99,,,0.00,weatherlink.com 1.10,2013-01-29 04:49:00,